Location: Aulnoy
(48.8410°N, 3.0967°E)
Time: 13:03:10
(UTC+00:00)

PAYLOAD B - Pass Details

Date: 09 February 2023
Orbit: 849 x 870 km, 99.1° (Epoch: 22 March)

Event Time Altitude Azimuth Distance (km) Brightness Sun altitude
Rises 17:52:29 0° 150° (SSE) 3,412 7.2 -9.4°
Reaches altitude 10° 17:54:53 10° 147° (SSE) 2,478 6.4 -9.8°
Maximum altitude 18:00:15 59° 69° (ENE) 982 4.3 -10.7°
Drops below altitude 10° 18:05:40 10° 351° (N) 2,488 6.7 -11.6°
Sets 18:08:04 0° 348° (NNW) 3,427 7.4 -11.9°
